Simultaneous Nadir Overpasses (SNOs) Predictions

Prediction of SNOs between GOES-16 and NOAA-20 Satellite Orbit:

Table of predicted SNOs for the next 14.0 days since TLE Epoch: 6/6/2025
Index Date Time (GOES-16) GOES-16 Lat,Lon NOAA-20 Lat,Lon Distance(km) Time Diff (sec)
1 06/08/2025 20:26:02 0.00,-106.02 0.00,-105.88 15.90 80
2 06/10/2025 08:50:34 -0.00,-106.81 0.96,-111.20 499.84 80
3 06/11/2025 08:29:12 -0.01,-107.32 -0.16,-106.69 72.60 80
4 06/12/2025 20:53:51 0.01,-108.14 -0.86,-112.03 443.46 80
5 06/13/2025 20:32:29 0.01,-108.66 0.27,-107.52 129.25 80
6 06/15/2025 08:57:00 -0.01,-109.44 0.76,-112.83 386.22 80
7 06/16/2025 08:35:37 -0.01,-109.96 -0.37,-108.32 186.28 80
8 06/17/2025 21:00:17 0.01,-110.77 -0.64,-113.66 329.86 80
9 06/18/2025 20:38:54 0.01,-111.29 0.49,-109.16 242.99 80
10 06/20/2025 09:03:26 -0.00,-112.07 0.53,-114.46 272.31 80
